Location: Hillern
(53.0557°N, 9.8577°E)
Time: 05:25:38
(UTC+00:00)

IKONOS-2 - Pass Details

Date: 19 May 2025
Orbit: 577 x 585 km, 98.2° (Epoch: 22 June)

Event Time Altitude Azimuth Distance (km) Brightness Sun altitude
Rises 20:21:09 0° 16° (NNE) 2,808 8.4 -7.7°
Reaches altitude 10° 20:23:20 10° 20° (NNE) 1,904 7.5 -7.9°
Maximum altitude 20:27:26 66° 103° (ESE) 637 4.4 -8.3°
Drops below altitude 10° 20:31:31 10° 186° (S) 1,893 6.6 -8.7°
Enters shadow 20:33:21 - 189° (S) 2,654 7.4 -8.9°
